This demonstration page uses our WeatherBlox Daily Observations layout. Learn more.

Left ArrowRight Arrow

41.86663, -103.66717

Hourly Observations for April 27, 2016

Temp ( °F °C ) Dew Point ( °F °C ) Humidity (%) Winds ( mph kmh ) Pressure ( in mb ) Visibility ( mi km ) Precip ( " mm )
12:09 am 00:09 Partly Cloudy 34 1.1 30 -1.1 85 85 WNW 9 15 29.91 1013 10 16 N/A
12:53 am 00:53 Clear 32 undefined 29 -1.7 88 88 WNW 8 13 29.90 1012 10 16 N/A
1:53 am 01:53 Clear 33 0.6 29 -1.7 85 85 WNW 13 20 29.87 1012 10 16 N/A
2:53 am 02:53 Mostly Clear 33 0.6 29 -1.7 85 85 NW 10 17 29.87 1012 10 16 N/A
3:08 am 03:08 Mostly Cloudy 34 1 28 -2 81 81 WNW 14 22 29.91 1013 10 16 N/A
3:53 am 03:53 Cloudy 34 1.1 30 -1.1 85 85 NW 13 20 29.86 1011 10 16 N/A
4:53 am 04:53 Cloudy 34 1.1 30 -1.1 85 85 NW 15 24 29.83 1010 10 16 N/A
5:24 am 05:24 Cloudy 34 1 28 -2 81 81 WNW 12 19 29.88 1012 10 16 N/A
5:53 am 05:53 Mostly Clear 34 1.1 29 -1.7 82 82 NW 14 22 29.82 1010 10 16 N/A
6:44 am 06:44 Cloudy 36 2 30 -1 81 81 WNW 14 22 29.88 1012 10 16 N/A
6:53 am 06:53 Cloudy 35 1.7 30 -1.1 82 82 WNW 14 22 29.83 1010 10 16 N/A
7:10 am 07:10 Cloudy 36 2 30 -1 81 81 WNW 16 26 29.88 1012 10 16 N/A
7:53 am 07:53 Cloudy 36 2.2 30 -1.1 79 79 NW 18 30 29.83 1010 10 16 N/A
8:53 am 08:53 Cloudy 40 4.4 31 -0.6 70 70 NW 26 43 29.83 1010 10 16 N/A
9:53 am 09:53 Mostly Cloudy 43 6.1 32 undefined 65 65 NW 26 43 29.82 1010 10 16 N/A
10:53 am 10:53 Cloudy 45 7.2 33 0.6 63 63 NW 24 39 29.82 1010 10 16 N/A
11:53 am 11:53 Cloudy 47 8.3 33 0.6 59 59 NW 26 43 29.80 1009 10 16 N/A
12:53 pm 12:53 Cloudy 48 8.9 33 0.6 56 56 NNW 26 43 29.79 1009 10 16 N/A
1:53 pm 13:53 Cloudy 47 8.3 32 undefined 56 56 NNW 24 39 29.79 1009 10 16 N/A
2:53 pm 14:53 Cloudy 48 8.9 31 -0.6 52 52 NW 26 43 29.80 1009 10 16 N/A
3:53 pm 15:53 Cloudy 46 7.8 31 -0.6 56 56 NW 26 43 29.81 1010 10 16 N/A
4:53 pm 16:53 Cloudy 47 8.3 31 -0.6 54 54 NNW 29 46 29.81 1010 10 16 N/A
5:53 pm 17:53 Mostly Cloudy 45 7.2 30 -1.1 56 56 NW 23 37 29.83 1010 10 16 N/A
6:53 pm 18:53 Mostly Cloudy 44 6.7 30 -1.1 58 58 NNW 24 39 29.83 1010 10 16 N/A
7:53 pm 19:53 Partly Cloudy 41 5 30 -1.1 65 65 NNW 14 22 29.85 1011 10 16 N/A
8:53 pm 20:53 Mostly Cloudy 40 4.4 30 -1.1 68 68 NNW 18 30 29.88 1012 10 16 N/A
9:19 pm 21:19 Cloudy 36 2.2 30 -1.1 79 79 NNE 13 20 29.97 1015 10 16 N/A
9:53 pm 21:53 Cloudy 36 2.2 30 -1.1 79 79 N 14 22 29.92 1013 10 16 N/A
10:53 pm 22:53 Cloudy 35 1.7 29 -1.7 78 78 N 9 15 29.94 1014 10 16 N/A
11:20 pm 23:20 Cloudy 36 2 28 -2 75 75 N 10 17 30.00 1016 10 16 N/A
11:53 pm 23:53 Cloudy 34 1.1 28 -2.2 79 79 N 12 19 29.95 1014 10 16 N/A

Powered by AerisWeather